Location: Pasadena, ca
(34.1243°N, 118.1037°W)
Time: 09:35:35
(UTC-08:00)

ISS - Visible Passes

Search period start: 19 February 2018 00:00
Search period end: 01 March 2018 00:00
Orbit: 403 x 407 km, 51.6° (Epoch: 20 February)

Date Brightness Start Highest point End Pass type
(mag) Time Alt. Az. Time Alt. Az. Time Alt. Az.
24 Feb -0.7 05:12:17 10° SSE 05:13:54 13° SE 05:15:31 10° E visible
25 Feb -3.8 05:54:32 10° SW 05:57:47 85° SE 06:01:04 10° NE visible
26 Feb -2.4 05:03:21 16° SSW 05:05:36 36° SE 05:08:38 10° ENE visible
27 Feb -1.0 04:14:01 16° ESE 04:14:01 16° ESE 04:15:41 10° E visible
27 Feb -3.0 05:46:44 10° WSW 05:49:43 34° NW 05:52:45 10° NNE visible
28 Feb -4.0 04:57:09 68° W 04:57:23 73° NW 05:00:39 10° NE visible
